Flag for U.S.A. Weather past 2 weeks in Irvine, California, U.S.A.

Now
72 °F

Scattered clouds.


Feels Like: 75 °F
Forecast: 64 / 74 °F
Wind: 8 mph from Southwest

Location: John Wayne Airport-Orange County Airport

Current Time: Jul 6, 2015 at 3:48:13 PM

Latest Report: Jul 6, 2015 at 2:53 PM


Visibility: 10 mi

Pressure: 30.00 "Hg

Humidity: 66%

Dew point: 60 °F

Location of IrvineLocation

Historic Weather in Irvine — Graph

°F

Irvine temperature yesterday

Maximum temperature yesterday: 74 °F (at 2:53 PM)
Minimum temperature yesterday: 65 °F (at 1:53 AM)
Average temperature yesterday: 68 °F

Past Weeks' High & Low Weather Summary

 TemperatureHumidityPressure
High86 °F (Jun 30, 7:53 PM)97% (Jun 30, 6:53 AM)30.05 "Hg (Jun 30, 6:53 AM)
Low63 °F (Jun 22, 6:53 AM)36% (Jun 30, 7:53 PM)29.78 "Hg (Jun 30, 7:53 PM)
Average70 °F74%29.92 "Hg
* Reported Jun 21 2:53 PM — Jul 6 2:53 PM, Irvine, Weather by CustomWeather, © 2015

Note: Actual official high and low records may vary slightly from our data, if they occured in-between our weather recording intervals... More about our weather records

Advertising

Irvine weather history for previous 24 hours

 ConditionsComfort  
Time TempWeatherWind HumidityBarometerVisibility
2:53 PM
Mon, Jul 6
72 °FScattered clouds.8 mph66%30.00 "Hg10 mi
1:53 PM73 °FScattered clouds.9 mph64%30.01 "Hg10 mi
12:53 PM71 °FPartly sunny.No wind68%30.02 "Hg10 mi
11:53 AM70 °FOvercast.3 mph71%30.04 "Hg10 mi
10:53 AM68 °FOvercast.3 mph76%30.05 "Hg10 mi
9:53 AM68 °FOvercast.5 mph76%30.05 "Hg10 mi
8:53 AM67 °FOvercast.3 mph79%30.05 "Hg10 mi
7:53 AM66 °FOvercast.5 mph81%30.04 "Hg10 mi
6:53 AM65 °FOvercast.5 mph81%30.03 "Hg10 mi
5:53 AM65 °FOvercast.3 mph81%30.02 "Hg10 mi
4:53 AM64 °FOvercast.No wind87%30.01 "Hg10 mi
3:53 AM64 °FOvercast.3 mph87%30.01 "Hg10 mi
2:53 AM64 °FOvercast.3 mph87%30.00 "Hg10 mi
2:01 AM64 °FOvercast.5 mph88%30.02 "Hg7 mi
12:53 AM65 °FOvercast.7 mph87%30.01 "Hg9 mi
11:53 PM
Sun, Jul 5
66 °FOvercast.3 mph81%30.00 "Hg10 mi
10:53 PM66 °FOvercast.No wind78%30.02 "Hg10 mi
9:53 PM66 °FOvercast.6 mph78%30.01 "Hg10 mi
8:53 PM66 °FPartly sunny.7 mph78%29.98 "Hg10 mi
7:53 PM66 °FPartly sunny.9 mph78%29.96 "Hg10 mi
6:53 PM69 °FScattered clouds.9 mph70%29.96 "Hg10 mi
5:53 PM70 °FScattered clouds.8 mph68%29.95 "Hg10 mi
4:53 PM71 °FScattered clouds.6 mph66%29.95 "Hg10 mi
3:53 PM73 °FScattered clouds.14 mph62%29.95 "Hg10 mi
Weather by CustomWeather, © 2015

See weather overviewHow to use our weather pages